KF6ILA Weather Reports


Display with metric or nautical units.
time (UTC)temp
F
wind
direction
speed
MPH
gust
MPH
rain 1hr
in
rain 24hr
in
rain mn
in
humidity
%
barometer
mb
20260903051157 63 257 18.0 28.0 0.00 0.00 0.00 23 1015.4
20260903050700 63 256 20.0 28.0 0.00 0.00 0.00 22 1015.5
20260903045706 63 258 22.0 28.0 0.00 0.00 0.00 21 1015.4
20260903045209 63 258 20.0 28.0 0.00 0.00 0.00 21 1015.5
20260903044712 62 251 18.0 28.0 0.00 0.00 0.00 22 1015.5
20260903044215 62 252 19.0 27.0 0.00 0.00 0.00 24 1015.4
20260903043718 62 245 21.0 27.0 0.00 0.00 0.00 25 1015.5
20260903043221 62 252 20.0 29.0 0.00 0.00 0.00 25 1015.4
20260903041730 62 250 17.0 26.0 0.00 0.00 0.00 30 1015.4
20260903034748 60 247 19.0 25.0 0.00 0.00 0.00 51 1015.1
20260903034251 60 251 19.0 24.0 0.00 0.00 0.00 56 1015.1
20260903033754 59 249 17.0 24.0 0.00 0.00 0.00 61 1015.1
20260903033257 58 249 17.0 24.0 0.00 0.00 0.00 66 1015.0
20260903032800 58 250 15.0 21.0 0.00 0.00 0.00 73 1014.8
20260903032305 58 251 15.0 21.0 0.00 0.00 0.00 75 1014.9
20260903031806 58 256 15.0 21.0 0.00 0.00 0.00 75 1014.9
20260903031309 58 257 15.0 21.0 0.00 0.00 0.00 75 1014.8
20260903030812 58 259 16.0 21.0 0.00 0.00 0.00 75 1014.7
20260903030315 59 261 14.0 20.0 0.00 0.00 0.00 74 1014.8
20260903025819 59 261 16.0 22.0 0.00 0.00 0.00 73 1014.7
20260903025321 59 261 15.0 23.0 0.00 0.00 0.00 72 1014.7
20260903024824 60 262 16.0 23.0 0.00 0.00 0.00 72 1015.5
20260903024327 60 259 17.0 23.0 0.00 0.00 0.00 71 1015.5
20260903023830 60 269 17.0 22.0 0.00 0.00 0.00 70 1015.5
20260903023333 61 260 17.0 21.0 0.00 0.00 0.00 69 1015.4
20260903022836 61 260 16.0 24.0 0.00 0.00 0.00 67 1015.4
20260903022339 62 268 16.0 24.0 0.00 0.00 0.00 66 1015.4
20260903021842 62 270 18.0 24.0 0.00 0.00 0.00 65 1015.3
20260903021345 62 272 14.0 23.0 0.00 0.00 0.00 64 1015.4
20260903020848 63 263 16.0 23.0 0.00 0.00 0.00 63 1015.3
20260903015854 64 272 18.0 24.0 0.00 0.00 0.00 60 1015.3
20260903015357 64 266 18.0 25.0 0.00 0.00 0.00 58 1015.4
20260903014900 65 267 20.0 25.0 0.00 0.00 0.00 56 1015.4
20260903014403 65 266 18.0 24.0 0.00 0.00 0.00 55 1015.4
20260903013409 66 267 20.0 27.0 0.00 0.00 0.00 53 1014.5
20260903012912 67 261 17.0 26.0 0.00 0.00 0.00 51 1014.6
20260903011421 68 261 17.0 25.0 0.00 0.00 0.00 48 1014.7
20260903010924 69 257 17.0 24.0 0.00 0.00 0.00 48 1014.8
20260903010427 69 256 15.0 27.0 0.00 0.00 0.00 47 1014.9
20260903005930 69 259 20.0 27.0 0.00 0.00 0.00 45 1014.9
20260903005433 70 258 16.0 24.0 0.00 0.00 0.00 44 1014.7
20260903004439 70 260 16.0 24.0 0.00 0.00 0.00 41 1014.9
20260903003942 71 247 15.0 24.0 0.00 0.00 0.00 39 1015.0
20260903002948 71 248 14.0 24.0 0.00 0.00 0.00 38 1015.1
20260903001954 72 247 12.0 23.0 0.00 0.00 0.00 37 1015.1
20260903001457 72 267 15.0 24.0 0.00 0.00 0.00 38 1015.3
20260902235509 74 264 14.0 23.0 0.00 0.00 0.00 36 1015.1
20260902235012 73 261 13.0 23.0 0.00 0.00 0.00 35 1015.2
20260902234515 73 263 14.0 25.0 0.00 0.00 0.00 36 1015.2
20260902234018 74 263 19.0 25.0 0.00 0.00 0.00 35 1015.1
20260902233521 74 255 14.0 25.0 0.00 0.00 0.00 35 1015.2
20260902232527 75 265 16.0 26.0 0.00 0.00 0.00 36 1015.6
20260902231036 75 259 17.0 25.0 0.00 0.00 0.00 33 1015.4
20260902230539 75 249 15.0 25.0 0.00 0.00 0.00 34 1015.7
20260902230042 76 237 14.0 24.0 0.00 0.00 0.00 32 1015.7
20260902225048 76 247 14.0 26.0 0.00 0.00 0.00 32 1015.9
20260902224551 76 256 15.0 26.0 0.00 0.00 0.00 30 1015.7
20260902224054 76 256 16.0 26.0 0.00 0.00 0.00 30 1016.0
20260902223557 76 248 17.0 29.0 0.00 0.00 0.00 27 1016.0
20260902223100 77 265 21.0 29.0 0.00 0.00 0.00 26 1015.7
20260902222603 77 254 12.0 27.0 0.00 0.00 0.00 27 1016.1
20260902222106 77 254 13.0 30.0 0.00 0.00 0.00 24 1015.9
20260902221609 77 242 17.0 30.0 0.00 0.00 0.00 26 1016.1
20260902221112 77 251 13.0 29.0 0.00 0.00 0.00 24 1016.3
20260902220615 78 246 18.0 29.0 0.00 0.00 0.00 22 1016.2
20260902220118 78 249 15.0 26.0 0.00 0.00 0.00 23 1016.4
20260902215621 79 256 14.0 21.0 0.00 0.00 0.00 21 1016.3
20260902215124 78 259 14.0 25.0 0.00 0.00 0.00 20 1016.3
20260902214627 78 229 15.0 25.0 0.00 0.00 0.00 19 1016.4
20260902214130 78 259 11.0 25.0 0.00 0.00 0.00 21 1016.2
20260902213633 78 237 14.0 25.0 0.00 0.00 0.00 19 1016.6
20260902213136 78 241 10.0 26.0 0.00 0.00 0.00 19 1016.5
20260902212639 77 232 13.0 27.0 0.00 0.00 0.00 19 1016.5
20260902211148 76 257 19.0 27.0 0.00 0.00 0.00 19 1016.5
20260902210651 76 265 15.0 29.0 0.00 0.00 0.00 19 1016.5
20260902205657 76 272 17.0 27.0 0.00 0.00 0.00 18 1016.7
20260902202715 76 271 17.0 29.0 0.00 0.00 0.00 19 1016.7
20260902201722 75 263 17.0 30.0 0.00 0.00 0.00 20 1016.8
20260902201224 75 257 17.0 30.0 0.00 0.00 0.00 21 1017.1
20260902200727 76 274 21.0 30.0 0.00 0.00 0.00 20 1016.7
20260902200230 76 254 14.0 29.0 0.00 0.00 0.00 20 1017.1
20260902195734 75 252 14.0 29.0 0.00 0.00 0.00 20 1017.0
20260902195236 75 277 17.0 27.0 0.00 0.00 0.00 20 1016.9
20260902194242 76 262 15.0 25.0 0.00 0.00 0.00 21 1017.0
20260902193745 75 265 14.0 26.0 0.00 0.00 0.00 21 1017.2
20260902193248 75 263 17.0 26.0 0.00 0.00 0.00 21 1017.2
20260902192752 76 259 15.0 26.0 0.00 0.00 0.00 20 1017.1
20260902192254 75 260 11.0 30.0 0.00 0.00 0.00 21 1017.2
20260902191301 74 270 17.0 27.0 0.00 0.00 0.00 20 1017.3
20260902190804 74 267 15.0 28.0 0.00 0.00 0.00 20 1017.3
20260902184816 74 271 16.0 26.0 0.00 0.00 0.00 20 1017.2
20260902184319 74 280 14.0 26.0 0.00 0.00 0.00 20 1017.3
20260902183324 74 268 17.0 26.0 0.00 0.00 0.00 20 1017.4
20260902182828 75 255 16.0 25.0 0.00 0.00 0.00 20 1017.4
20260902182331 74 263 12.0 26.0 0.00 0.00 0.00 21 1017.4
20260902181833 73 272 18.0 27.0 0.00 0.00 0.00 21 1017.2
20260902180839 72 263 16.0 28.0 0.00 0.00 0.00 22 1017.3
20260902180342 72 262 16.0 27.0 0.00 0.00 0.00 22 1017.3
20260902175348 72 275 18.0 29.0 0.00 0.00 0.00 22 1017.2
20260902174852 72 264 16.0 29.0 0.00 0.00 0.00 22 1017.2
20260902174354 71 265 18.0 27.0 0.00 0.00 0.00 21 1017.2
20260902173858 71 271 21.0 27.0 0.00 0.00 0.00 21 1017.1
20260902173400 71 263 18.0 27.0 0.00 0.00 0.00 21 1017.2
20260902172903 71 269 19.0 29.0 0.00 0.00 0.00 21 1017.0
20260902172406 71 269 20.0 29.0 0.00 0.00 0.00 20 1017.1
20260902170916 70 272 18.0 29.0 0.00 0.00 0.00 41 1016.8
20260902170418 70 272 17.0 29.0 0.00 0.00 0.00 21 1016.9
20260902165424 70 265 20.0 29.0 0.00 0.00 0.00 21 1017.0
20260902164928 69 273 18.0 34.0 0.00 0.00 0.00 22 1016.8
20260902164430 69 270 20.0 34.0 0.00 0.00 0.00 22 1016.7
20260902162940 69 266 19.0 27.0 0.00 0.00 0.00 22 1016.8
20260902161946 68 264 18.0 26.0 0.00 0.00 0.00 22 1016.8
20260902161448 68 266 16.0 26.0 0.00 0.00 0.00 23 1016.8
20260902160952 68 272 17.0 24.0 0.00 0.00 0.00 23 1016.6
20260902160454 68 271 15.0 23.0 0.00 0.00 0.00 23 1016.7
20260902155958 68 270 15.0 22.0 0.00 0.00 0.00 23 1016.7
20260902155501 68 262 13.0 22.0 0.00 0.00 0.00 23 1016.6
20260902153513 66 260 15.0 24.0 0.00 0.00 0.00 24 1016.6
20260902153016 66 257 17.0 24.0 0.00 0.00 0.00 24 1016.4
20260902152022 65 255 16.0 26.0 0.00 0.00 0.00 24 1016.2
20260902151525 65 256 15.0 26.0 0.00 0.00 0.00 24 1016.3
20260902151028 65 260 16.0 26.0 0.00 0.00 0.00 25 1016.2
20260902150531 65 257 15.0 23.0 0.00 0.00 0.00 25 1016.1
20260902150034 64 254 16.0 24.0 0.00 0.00 0.00 25 1016.2
20260902145537 64 260 16.0 24.0 0.00 0.00 0.00 25 1016.1
20260902145040 64 255 15.0 23.0 0.00 0.00 0.00 26 1016.2
20260902144543 63 257 16.0 23.0 0.00 0.00 0.00 25 1016.2
20260902143549 63 260 16.0 24.0 0.00 0.00 0.00 25 1016.2
20260902142555 63 256 15.0 24.0 0.00 0.00 0.00 26 1016.2
20260902142058 62 257 15.0 24.0 0.00 0.00 0.00 26 1016.3
20260902141104 62 258 16.0 24.0 0.00 0.00 0.00 26 1016.2
20260902140607 62 258 17.0 23.0 0.00 0.00 0.00 26 1016.2
20260902135613 62 255 17.0 27.0 0.00 0.00 0.00 26 1015.9
20260902135116 62 255 17.0 27.0 0.00 0.00 0.00 26 1016.0
20260902134619 62 256 16.0 24.0 0.00 0.00 0.00 26 1016.0
20260902134122 62 256 18.0 24.0 0.00 0.00 0.00 26 1015.9
20260902133625 62 257 18.0 24.0 0.00 0.00 0.00 26 1015.8
20260902133128 62 254 18.0 24.0 0.00 0.00 0.00 27 1015.8
20260902132631 62 253 17.0 24.0 0.00 0.00 0.00 27 1015.7
20260902132134 62 250 16.0 24.0 0.00 0.00 0.00 27 1015.6
20260902131637 62 254 16.0 23.0 0.00 0.00 0.00 27 1015.5
20260902131140 62 248 16.0 24.0 0.00 0.00 0.00 27 1015.6
20260902125650 62 255 18.0 27.0 0.00 0.00 0.00 27 1015.3
20260902124158 62 257 18.0 25.0 0.00 0.00 0.00 27 1015.4
20260902123702 62 263 20.0 26.0 0.00 0.00 0.00 27 1015.4
20260902123204 63 256 18.0 26.0 0.00 0.00 0.00 27 1015.4
20260902122707 62 260 17.0 24.0 0.00 0.00 0.00 26 1015.4
20260902122210 63 256 18.0 24.0 0.00 0.00 0.00 27 1015.4
20260902121216 63 257 20.0 25.0 0.00 0.00 0.00 27 1015.4
20260902120719 63 256 17.0 25.0 0.00 0.00 0.00 27 1015.4
20260902115725 63 257 19.0 26.0 0.00 0.00 0.00 26 1015.5
20260902112246 62 255 19.0 25.0 0.00 0.00 0.00 28 1015.4
20260902111749 62 251 16.0 24.0 0.00 0.00 0.00 28 1015.5
20260902111252 62 250 18.0 26.0 0.00 0.00 0.00 28 1015.6
20260902110755 62 250 18.0 26.0 0.00 0.00 0.00 28 1015.5
20260902110258 62 253 19.0 25.0 0.00 0.00 0.00 28 1015.4
20260902105801 62 248 18.0 24.0 0.00 0.00 0.00 28 1015.6
20260902105306 62 259 19.0 25.0 0.00 0.00 0.00 28 1015.5
20260902104807 62 255 19.0 25.0 0.00 0.00 0.00 28 1015.6
20260902104310 62 257 21.0 26.0 0.00 0.00 0.00 28 1015.6
20260902103813 62 261 21.0 26.0 0.00 0.00 0.00 28 1015.6
20260902103316 62 260 19.0 26.0 0.00 0.00 0.00 28 1015.6
20260902102819 62 259 19.0 28.0 0.00 0.00 0.00 28 1015.7
20260902102322 62 258 21.0 28.0 0.00 0.00 0.00 28 1015.7
20260902101825 62 259 20.0 26.0 0.00 0.00 0.00 28 1015.8
20260902101328 62 257 19.0 26.0 0.00 0.00 0.00 28 1015.8
20260902100831 62 251 19.0 26.0 0.00 0.00 0.00 28 1015.8
20260902100334 62 258 19.0 25.0 0.00 0.00 0.00 28 1015.8
20260902095837 62 253 18.0 26.0 0.00 0.00 0.00 28 1015.8
20260902094843 62 258 19.0 27.0 0.00 0.00 0.00 28 1015.8
20260902094346 62 259 19.0 28.0 0.00 0.00 0.00 28 1015.9
20260902093849 62 261 20.0 28.0 0.00 0.00 0.00 28 1015.8
20260902093352 62 259 20.0 26.0 0.00 0.00 0.00 28 1015.8
20260902092358 62 260 19.0 27.0 0.00 0.00 0.00 28 1015.9
20260902091404 62 255 19.0 26.0 0.00 0.00 0.00 28 1016.0
20260902090907 62 255 17.0 26.0 0.00 0.00 0.00 28 1015.9
20260902090410 62 256 16.0 25.0 0.00 0.00 0.00 28 1016.1
20260902085416 62 255 17.0 25.0 0.00 0.00 0.00 28 1016.3
20260902084919 62 258 19.0 24.0 0.00 0.00 0.00 28 1016.2
20260902083428 62 260 17.0 24.0 0.00 0.00 0.00 28 1016.1
20260902082931 62 257 17.0 24.0 0.00 0.00 0.00 27 1016.2
20260902082434 61 251 17.0 24.0 0.00 0.00 0.00 27 1016.1
20260902081937 0 255 19.0 24.0 0.00 0.00 0.00 27 1016.2
20260902081440 61 256 18.0 24.0 0.00 0.00 0.00 27 1016.2
20260902080943 61 256 17.0 24.0 0.00 0.00 0.00 27 1016.2
20260902080446 61 258 17.0 25.0 0.00 0.00 0.00 27 1016.2
20260902075949 61 256 16.0 26.0 0.00 0.00 0.00 26 1016.1
20260902075452 61 255 19.0 26.0 0.00 0.00 0.00 26 1016.1
20260902074458 61 257 18.0 24.0 0.00 0.00 0.00 26 1016.2
20260902074001 61 259 18.0 24.0 0.00 0.00 0.00 27 1016.2
20260902072510 61 254 16.0 24.0 0.00 0.00 0.00 29 1016.0
20260902072013 61 259 17.0 24.0 0.00 0.00 0.00 29 1016.0
20260902071516 61 258 18.0 24.0 0.00 0.00 0.00 30 1015.8
20260902070025 61 261 17.0 24.0 0.00 0.00 0.00 33 1015.8
20260902065528 61 261 17.0 23.0 0.00 0.00 0.00 33 1016.6
20260902065031 61 260 15.0 23.0 0.00 0.00 0.00 33 1016.6
20260902064534 61 263 16.0 24.0 0.00 0.00 0.00 34 1016.6
20260902064037 61 262 17.0 24.0 0.00 0.00 0.00 34 1016.7
20260902063540 61 261 17.0 25.0 0.00 0.00 0.00 35 1016.6
20260902062049 61 265 17.0 24.0 0.00 0.00 0.00 35 1016.7
20260902061552 61 262 18.0 24.0 0.00 0.00 0.00 35 1016.6
20260902061055 62 262 17.0 24.0 0.00 0.00 0.00 34 1016.4
20260902060558 62 252 17.0 23.0 0.00 0.00 0.00 34 1016.5
20260902060101 61 261 17.0 23.0 0.00 0.00 0.00 34 1016.5
20260902055604 62 256 18.0 24.0 0.00 0.00 0.00 34 1016.5
20260902055107 62 259 18.0 24.0 0.00 0.00 0.00 33 1016.4
20260902054610 62 262 16.0 24.0 0.00 0.00 0.00 32 1016.4
20260902053119 62 256 16.0 26.0 0.00 0.00 0.00 31 1016.4
20260902052622 62 255 18.0 24.0 0.00 0.00 0.00 32 1016.4
20260902052125 62 258 15.0 24.0 0.00 0.00 0.00 31 1016.4
20260902051628 62 259 16.0 24.0 0.00 0.00 0.00 31 1016.4